Time,TemperatureF,DewpointF,PressureIn,WindDirection,WindDirectionDegrees,WindSpeedMPH,WindSpeedGustMPH,Humidity,HourlyPrecipIn,Conditions,Clouds,dailyrainin,SoftwareType,DateUTC
2013-01-26 00:03:00,24.0,22.0,30.08,WSW,247,2.0,5.0,90,0.00,,,0.00,,2013-01-26 05:03:00,
2013-01-26 00:12:00,24.0,22.0,30.08,WSW,247,2.0,5.0,90,0.00,,,0.00,,2013-01-26 05:12:00,
2013-01-26 00:23:00,24.0,22.0,30.08,SW,231,3.0,4.0,90,0.00,,,0.00,,2013-01-26 05:23:00,
2013-01-26 00:33:00,24.0,22.0,30.09,WSW,240,2.0,4.0,91,0.00,,,0.00,,2013-01-26 05:33:00,
2013-01-26 00:42:00,24.0,22.0,30.09,WSW,240,2.0,4.0,91,0.00,,,0.00,,2013-01-26 05:42:00,
2013-01-26 00:52:00,24.0,22.0,30.08,SW,233,2.0,4.0,91,0.00,,,0.00,,2013-01-26 05:52:00,
2013-01-26 01:03:00,24.0,22.0,30.09,SW,233,3.0,4.0,91,0.00,,,0.00,,2013-01-26 06:03:00,
2013-01-26 01:12:00,24.0,22.0,30.09,SW,233,3.0,4.0,91,0.00,,,0.00,,2013-01-26 06:12:00,
2013-01-26 01:21:00,24.0,22.0,30.09,SW,228,2.0,4.0,91,0.00,,,0.00,,2013-01-26 06:21:00,
2013-01-26 01:32:00,24.0,22.0,30.09,SW,229,2.0,2.0,92,0.00,,,0.00,,2013-01-26 06:32:00,
2013-01-26 01:42:00,24.0,22.0,30.09,SW,229,2.0,2.0,92,0.00,,,0.00,,2013-01-26 06:42:00,
2013-01-26 01:52:00,24.0,22.0,30.09,SW,218,2.0,3.0,92,0.00,,,0.00,,2013-01-26 06:52:00,
2013-01-26 02:02:00,24.0,22.0,30.09,SW,217,1.0,2.0,92,0.00,,,0.00,,2013-01-26 07:02:00,
2013-01-26 02:12:00,24.0,22.0,30.09,SW,217,1.0,2.0,92,0.00,,,0.00,,2013-01-26 07:12:00,
2013-01-26 02:22:00,24.0,22.0,30.09,SW,217,1.0,2.0,92,0.00,,,0.00,,2013-01-26 07:22:00,
2013-01-26 02:33:00,24.0,22.0,30.09,SW,218,2.0,4.0,92,0.00,,,0.00,,2013-01-26 07:33:00,
2013-01-26 02:42:00,24.0,22.0,30.09,SW,218,2.0,4.0,92,0.00,,,0.00,,2013-01-26 07:42:00,
2013-01-26 02:51:00,24.0,22.0,30.11,WSW,240,2.0,3.0,91,0.00,,,0.00,,2013-01-26 07:51:00,
2013-01-26 03:02:00,24.0,22.0,30.11,WSW,240,2.0,3.0,91,0.00,,,0.00,,2013-01-26 08:02:00,
2013-01-26 03:11:00,24.0,22.0,30.11,WSW,240,2.0,3.0,91,0.00,,,0.00,,2013-01-26 08:11:00,
2013-01-26 03:22:00,24.0,22.0,30.11,WSW,240,2.0,4.0,91,0.00,,,0.00,,2013-01-26 08:22:00,
2013-01-26 03:32:00,24.0,22.0,30.12,West,281,1.0,3.0,90,0.00,,,0.00,,2013-01-26 08:32:00,
2013-01-26 03:42:00,24.0,22.0,30.12,West,281,1.0,3.0,90,0.00,,,0.00,,2013-01-26 08:42:00,
2013-01-26 03:53:00,24.0,22.0,30.12,West,273,1.0,2.0,91,0.00,,,0.00,,2013-01-26 08:53:00,
2013-01-26 04:02:00,24.0,22.0,30.12,West,271,1.0,3.0,91,0.00,,,0.00,,2013-01-26 09:02:00,
2013-01-26 04:11:00,24.0,22.0,30.12,West,271,1.0,3.0,91,0.00,,,0.00,,2013-01-26 09:11:00,
2013-01-26 04:22:00,24.0,22.0,30.13,West,274,2.0,3.0,91,0.00,,,0.00,,2013-01-26 09:22:00,
2013-01-26 04:32:00,24.0,22.0,30.13,WNW,287,2.0,5.0,91,0.00,,,0.00,,2013-01-26 09:32:00,
2013-01-26 04:42:00,24.0,22.0,30.13,WNW,287,2.0,5.0,91,0.00,,,0.00,,2013-01-26 09:42:00,
2013-01-26 04:51:00,25.0,22.0,30.13,WNW,284,3.0,6.0,90,0.00,,,0.00,,2013-01-26 09:51:00,
2013-01-26 05:01:00,25.0,22.0,30.14,WNW,290,2.0,8.0,90,0.00,,,0.00,,2013-01-26 10:01:00,
2013-01-26 05:12:00,25.0,22.0,30.14,WNW,290,2.0,8.0,90,0.00,,,0.00,,2013-01-26 10:12:00,
2013-01-26 05:21:00,25.0,22.0,30.14,WNW,290,3.0,8.0,90,0.00,,,0.00,,2013-01-26 10:21:00,
2013-01-26 05:32:00,25.0,22.0,30.15,WNW,284,3.0,6.0,90,0.00,,,0.00,,2013-01-26 10:32:00,
2013-01-26 05:42:00,25.0,22.0,30.15,WNW,284,3.0,6.0,90,0.00,,,0.00,,2013-01-26 10:42:00,
2013-01-26 05:52:00,25.0,22.0,30.15,NW,317,0.0,7.0,90,0.00,,,0.00,,2013-01-26 10:52:00,
2013-01-26 06:02:00,25.0,22.0,30.16,NW,322,1.0,6.0,90,0.00,,,0.00,,2013-01-26 11:02:00,
2013-01-26 06:12:00,25.0,22.0,30.16,NW,322,1.0,6.0,90,0.00,,,0.00,,2013-01-26 11:12:00,
2013-01-26 06:22:00,25.0,22.0,30.16,WNW,290,2.0,5.0,90,0.00,,,0.00,,2013-01-26 11:22:00,
2013-01-26 06:32:00,25.0,22.0,30.17,WNW,283,1.0,6.0,90,0.00,,,0.00,,2013-01-26 11:32:00,
2013-01-26 06:42:00,25.0,22.0,30.17,WNW,283,1.0,6.0,90,0.00,,,0.00,,2013-01-26 11:42:00,
2013-01-26 06:52:00,25.0,22.0,30.18,WNW,297,2.0,6.0,89,0.00,,,0.00,,2013-01-26 11:52:00,
2013-01-26 07:02:00,25.0,22.0,30.19,WNW,289,2.0,5.0,89,0.00,,,0.00,,2013-01-26 12:02:00,
2013-01-26 07:12:00,25.0,22.0,30.19,WNW,289,2.0,5.0,89,0.00,,,0.00,,2013-01-26 12:12:00,
2013-01-26 07:23:00,25.0,22.0,30.20,WNW,291,2.0,6.0,89,0.00,,,0.00,,2013-01-26 12:23:00,
2013-01-26 07:33:00,25.0,22.0,30.21,WNW,302,2.0,8.0,89,0.00,,,0.00,,2013-01-26 12:33:00,
2013-01-26 07:42:00,25.0,22.0,30.21,WNW,302,2.0,8.0,89,0.00,,,0.00,,2013-01-26 12:42:00,
2013-01-26 07:52:00,25.0,22.0,30.22,WNW,287,2.0,5.0,89,0.00,,,0.00,,2013-01-26 12:52:00,
2013-01-26 08:04:00,25.0,22.0,30.22,WNW,294,1.0,6.0,89,0.00,,,0.00,,2013-01-26 13:04:00,
2013-01-26 08:12:00,25.0,22.0,30.22,WNW,294,1.0,6.0,89,0.00,,,0.00,,2013-01-26 13:12:00,
2013-01-26 08:22:00,25.0,22.0,30.23,WNW,297,0.0,4.0,88,0.00,,,0.00,,2013-01-26 13:22:00,
2013-01-26 08:33:00,25.0,22.0,30.24,WNW,287,0.0,4.0,88,0.00,,,0.00,,2013-01-26 13:33:00,
2013-01-26 08:42:00,25.0,22.0,30.24,WNW,287,0.0,4.0,88,0.00,,,0.00,,2013-01-26 13:42:00,
2013-01-26 08:52:00,25.0,21.0,30.24,WNW,297,1.0,7.0,86,0.00,,,0.00,,2013-01-26 13:52:00,
2013-01-26 09:03:00,25.0,21.0,30.25,NW,305,3.0,7.0,84,0.00,,,0.00,,2013-01-26 14:03:00,
2013-01-26 09:12:00,25.0,21.0,30.25,NW,305,3.0,7.0,84,0.00,,,0.00,,2013-01-26 14:12:00,
2013-01-26 09:22:00,25.0,21.0,30.27,NW,312,2.0,8.0,84,0.00,,,0.00,,2013-01-26 14:22:00,
2013-01-26 09:32:00,25.0,21.0,30.27,WNW,302,1.0,4.0,83,0.00,,,0.00,,2013-01-26 14:32:00,
2013-01-26 09:43:00,25.0,21.0,30.27,WNW,302,1.0,4.0,83,0.00,,,0.00,,2013-01-26 14:43:00,
2013-01-26 09:52:00,25.0,20.0,30.27,WNW,300,1.0,5.0,82,0.00,,,0.00,,2013-01-26 14:52:00,
2013-01-26 10:03:00,25.0,20.0,30.28,WNW,297,2.0,5.0,81,0.00,,,0.00,,2013-01-26 15:03:00,
2013-01-26 10:12:00,25.0,20.0,30.28,WNW,297,2.0,5.0,81,0.00,,,0.00,,2013-01-26 15:12:00,
2013-01-26 10:22:00,25.0,20.0,30.29,NW,305,1.0,5.0,80,0.00,,,0.00,,2013-01-26 15:22:00,
2013-01-26 10:33:00,26.0,20.0,30.29,NW,323,3.0,7.0,79,0.00,,,0.00,,2013-01-26 15:33:00,
2013-01-26 10:43:00,26.0,20.0,30.29,NW,323,3.0,7.0,79,0.00,,,0.00,,2013-01-26 15:43:00,
2013-01-26 10:52:00,26.0,20.0,30.30,WNW,300,3.0,9.0,77,0.00,,,0.00,,2013-01-26 15:52:00,
2013-01-26 11:02:00,26.0,20.0,30.31,WNW,288,2.0,7.0,77,0.00,,,0.00,,2013-01-26 16:02:00,
2013-01-26 11:12:00,26.0,20.0,30.31,WNW,288,2.0,7.0,77,0.00,,,0.00,,2013-01-26 16:12:00,
2013-01-26 11:22:00,26.0,19.0,30.32,NNW,333,2.0,8.0,75,0.00,,,0.00,,2013-01-26 16:22:00,
2013-01-26 11:33:00,26.0,19.0,30.33,NW,305,4.0,8.0,74,0.00,,,0.00,,2013-01-26 16:33:00,
2013-01-26 11:43:00,26.0,19.0,30.33,NW,305,4.0,8.0,74,0.00,,,0.00,,2013-01-26 16:43:00,
2013-01-26 11:53:00,27.0,20.0,30.34,WNW,297,3.0,8.0,74,0.00,,,0.00,,2013-01-26 16:53:00,
2013-01-26 12:03:00,27.0,19.0,30.34,NNW,328,6.0,11.0,71,0.00,,,0.00,,2013-01-26 17:03:00,
2013-01-26 12:13:00,27.0,19.0,30.34,NNW,328,6.0,11.0,71,0.00,,,0.00,,2013-01-26 17:13:00,
2013-01-26 12:22:00,27.0,19.0,30.35,WNW,293,5.0,13.0,71,0.00,,,0.00,,2013-01-26 17:22:00,
2013-01-26 12:33:00,26.0,18.0,30.35,WNW,294,5.0,12.0,72,0.00,,,0.00,,2013-01-26 17:33:00,
2013-01-26 12:42:00,26.0,18.0,30.35,WNW,294,5.0,12.0,72,0.00,,,0.00,,2013-01-26 17:42:00,
2013-01-26 12:52:00,26.0,18.0,30.34,NNW,340,5.0,12.0,72,0.00,,,0.00,,2013-01-26 17:52:00,
2013-01-26 13:03:00,27.0,19.0,30.34,WNW,290,3.0,8.0,72,0.00,,,0.00,,2013-01-26 18:03:00,
2013-01-26 13:12:00,27.0,19.0,30.34,WNW,290,3.0,8.0,72,0.00,,,0.00,,2013-01-26 18:12:00,
2013-01-26 13:22:00,28.0,19.0,30.34,WNW,300,6.0,11.0,68,0.00,,,0.00,,2013-01-26 18:22:00,
2013-01-26 13:33:00,28.0,20.0,30.34,WNW,297,3.0,12.0,70,0.00,,,0.00,,2013-01-26 18:33:00,
2013-01-26 13:42:00,28.0,20.0,30.34,WNW,297,3.0,12.0,70,0.00,,,0.00,,2013-01-26 18:42:00,
2013-01-26 13:52:00,27.0,18.0,30.34,WNW,298,4.0,12.0,69,0.00,,,0.00,,2013-01-26 18:52:00,
2013-01-26 14:03:00,27.0,18.0,30.33,WNW,288,5.0,10.0,68,0.00,,,0.00,,2013-01-26 19:03:00,
2013-01-26 14:12:00,27.0,18.0,30.33,WNW,288,5.0,10.0,68,0.00,,,0.00,,2013-01-26 19:12:00,
2013-01-26 14:22:00,28.0,19.0,30.33,West,280,4.0,9.0,68,0.00,,,0.00,,2013-01-26 19:22:00,
2013-01-26 14:33:00,28.0,18.0,30.34,NNW,338,5.0,12.0,65,0.00,,,0.00,,2013-01-26 19:33:00,
2013-01-26 14:42:00,28.0,18.0,30.34,NNW,338,5.0,12.0,65,0.00,,,0.00,,2013-01-26 19:42:00,
2013-01-26 14:52:00,28.0,17.0,30.33,North,349,4.0,9.0,63,0.00,,,0.00,,2013-01-26 19:52:00,
2013-01-26 15:02:00,28.0,17.0,30.34,WNW,297,3.0,7.0,64,0.00,,,0.00,,2013-01-26 20:02:00,
2013-01-26 15:12:00,28.0,17.0,30.34,WNW,297,3.0,7.0,64,0.00,,,0.00,,2013-01-26 20:12:00,
2013-01-26 15:22:00,28.0,16.0,30.34,NNW,332,3.0,13.0,61,0.00,,,0.00,,2013-01-26 20:22:00,
2013-01-26 15:32:00,28.0,17.0,30.35,WNW,291,1.0,8.0,63,0.00,,,0.00,,2013-01-26 20:32:00,
2013-01-26 15:42:00,28.0,17.0,30.35,WNW,291,1.0,8.0,63,0.00,,,0.00,,2013-01-26 20:42:00,
2013-01-26 15:52:00,28.0,16.0,30.35,WNW,297,2.0,6.0,61,0.00,,,0.00,,2013-01-26 20:52:00,
2013-01-26 16:03:00,29.0,16.0,30.35,NW,315,3.0,9.0,59,0.00,,,0.00,,2013-01-26 21:03:00,
2013-01-26 16:12:00,29.0,16.0,30.35,NW,315,3.0,9.0,59,0.00,,,0.00,,2013-01-26 21:12:00,
2013-01-26 16:23:00,30.0,17.0,30.35,NNW,342,3.0,6.0,57,0.00,,,0.00,,2013-01-26 21:23:00,
2013-01-26 16:32:00,30.0,17.0,30.36,WNW,291,5.0,8.0,58,0.00,,,0.00,,2013-01-26 21:32:00,
2013-01-26 16:43:00,30.0,17.0,30.36,WNW,291,5.0,8.0,58,0.00,,,0.00,,2013-01-26 21:43:00,
2013-01-26 16:52:00,30.0,17.0,30.36,WNW,291,4.0,10.0,57,0.00,,,0.00,,2013-01-26 21:52:00,
2013-01-26 17:02:00,29.0,16.0,30.37,WNW,293,2.0,6.0,58,0.00,,,0.00,,2013-01-26 22:02:00,
2013-01-26 17:12:00,29.0,16.0,30.37,WNW,293,2.0,6.0,58,0.00,,,0.00,,2013-01-26 22:12:00,
2013-01-26 17:22:00,29.0,17.0,30.37,West,278,1.0,3.0,60,0.00,,,0.00,,2013-01-26 22:22:00,
2013-01-26 17:32:00,28.0,16.0,30.37,NW,322,0.0,2.0,60,0.00,,,0.00,,2013-01-26 22:32:00,
2013-01-26 17:42:00,28.0,16.0,30.37,NW,322,0.0,2.0,60,0.00,,,0.00,,2013-01-26 22:42:00,
2013-01-26 17:52:00,28.0,16.0,30.37,WNW,291,0.0,1.0,60,0.00,,,0.00,,2013-01-26 22:52:00,
2013-01-26 18:02:00,27.0,16.0,30.38,WNW,290,0.0,1.0,62,0.00,,,0.00,,2013-01-26 23:02:00,
2013-01-26 18:12:00,27.0,16.0,30.38,WNW,290,0.0,1.0,62,0.00,,,0.00,,2013-01-26 23:12:00,
2013-01-26 18:22:00,26.0,16.0,30.39,West,269,0.0,1.0,65,0.00,,,0.00,,2013-01-26 23:22:00,
2013-01-26 18:32:00,25.0,16.0,30.40,West,269,0.0,1.0,67,0.00,,,0.00,,2013-01-26 23:32:00,
2013-01-26 18:42:00,25.0,16.0,30.40,West,269,0.0,1.0,67,0.00,,,0.00,,2013-01-26 23:42:00,
2013-01-26 18:52:00,24.0,16.0,30.41,West,271,0.0,1.0,70,0.00,,,0.00,,2013-01-26 23:52:00,
2013-01-26 19:02:00,23.0,15.0,30.41,West,271,0.0,1.0,71,0.00,,,0.00,,2013-01-27 00:02:00,
2013-01-26 19:12:00,23.0,15.0,30.41,West,271,0.0,1.0,71,0.00,,,0.00,,2013-01-27 00:12:00,
2013-01-26 19:22:00,22.0,15.0,30.42,West,271,0.0,0.0,74,0.00,,,0.00,,2013-01-27 00:22:00,
2013-01-26 19:32:00,22.0,16.0,30.42,ENE,64,0.0,2.0,76,0.00,,,0.00,,2013-01-27 00:32:00,
2013-01-26 19:42:00,22.0,16.0,30.42,ENE,64,0.0,2.0,76,0.00,,,0.00,,2013-01-27 00:42:00,
2013-01-26 19:51:00,22.0,15.0,30.42,ENE,77,0.0,1.0,73,0.00,,,0.00,,2013-01-27 00:51:00,
2013-01-26 20:02:00,22.0,15.0,30.41,East,96,0.0,2.0,75,0.00,,,0.00,,2013-01-27 01:02:00,
2013-01-26 20:11:00,22.0,15.0,30.41,East,96,0.0,2.0,75,0.00,,,0.00,,2013-01-27 01:11:00,
2013-01-26 20:22:00,20.0,14.0,30.41,East,96,0.0,1.0,77,0.00,,,0.00,,2013-01-27 01:22:00,
2013-01-26 20:32:00,19.0,14.0,30.42,East,96,0.0,0.0,79,0.00,,,0.00,,2013-01-27 01:32:00,
2013-01-26 20:42:00,19.0,14.0,30.42,East,96,0.0,0.0,79,0.00,,,0.00,,2013-01-27 01:42:00,
2013-01-26 20:52:00,18.0,13.0,30.43,East,96,0.0,0.0,82,0.00,,,0.00,,2013-01-27 01:52:00,
2013-01-26 21:01:00,18.0,13.0,30.43,East,96,0.0,0.0,82,0.00,,,0.00,,2013-01-27 02:01:00,
2013-01-26 21:12:00,18.0,13.0,30.43,East,96,0.0,0.0,82,0.00,,,0.00,,2013-01-27 02:12:00,
2013-01-26 21:22:00,17.0,13.0,30.43,East,79,0.0,2.0,85,0.00,,,0.00,,2013-01-27 02:22:00,
2013-01-26 21:32:00,16.0,11.0,30.43,East,79,0.0,1.0,82,0.00,,,0.00,,2013-01-27 02:32:00,
2013-01-26 21:42:00,16.0,11.0,30.43,East,79,0.0,1.0,82,0.00,,,0.00,,2013-01-27 02:42:00,
2013-01-26 21:52:00,16.0,12.0,30.42,SE,126,0.0,1.0,84,0.00,,,0.00,,2013-01-27 02:52:00,
2013-01-26 22:02:00,16.0,12.0,30.42,ESE,105,1.0,2.0,83,0.00,,,0.00,,2013-01-27 03:02:00,
2013-01-26 22:11:00,16.0,12.0,30.42,ESE,105,1.0,2.0,83,0.00,,,0.00,,2013-01-27 03:11:00,
2013-01-26 22:21:00,18.0,14.0,30.42,ESE,121,3.0,3.0,84,0.00,,,0.00,,2013-01-27 03:21:00,
2013-01-26 22:32:00,18.0,13.0,30.42,SE,133,0.0,1.0,80,0.00,,,0.00,,2013-01-27 03:32:00,
2013-01-26 22:42:00,18.0,13.0,30.42,SE,133,0.0,1.0,80,0.00,,,0.00,,2013-01-27 03:42:00,
2013-01-26 22:51:00,18.0,14.0,30.43,SSE,149,0.0,1.0,84,0.00,,,0.00,,2013-01-27 03:51:00,
2013-01-26 23:02:00,19.0,15.0,30.43,SW,219,2.0,3.0,83,0.00,,,0.00,,2013-01-27 04:02:00,
2013-01-26 23:12:00,19.0,15.0,30.43,SW,219,2.0,3.0,83,0.00,,,0.00,,2013-01-27 04:12:00,
2013-01-26 23:22:00,19.0,15.0,30.44,SSE,159,2.0,3.0,85,0.00,,,0.00,,2013-01-27 04:22:00,
2013-01-26 23:32:00,19.0,15.0,30.46,South,186,0.0,2.0,84,0.00,,,0.00,,2013-01-27 04:32:00,
2013-01-26 23:42:00,19.0,15.0,30.46,South,186,0.0,2.0,84,0.00,,,0.00,,2013-01-27 04:42:00,
2013-01-26 23:51:00,19.0,15.0,30.46,South,186,0.0,2.0,84,0.00,,,0.00,,2013-01-27 04:51:00,